Home   Weather   Kiel   Past weeks

Flag for Germany Past Weather in Kiel, Schleswig-Holstein, Germany — Yesterday and Last 2 Weeks

Now
34 °F

Chilly.


Feels Like: 30 °F
Forecast: 41 / 54 °F
Wind: 5 mph from Northeast

Location: Hohn

Current Time: Apr 30, 2017 at 3:26:42 am

Latest Report: Apr 30, 2017 at 2:20 am


Visibility: N/A

Pressure: 30.12 "Hg

Humidity: 93%

Dew Point: 32 °F

Location of KielLocation

Past Weather in Kiel — Graph

°F

Kiel Temperature Yesterday

Maximum temperature yesterday: 50 °F (at 5:20 pm)
Minimum temperature yesterday: 32 °F (at 1:20 am)
Average temperature yesterday: 41 °F

High & Low Weather Summary for the Past Weeks

 TemperatureHumidityPressure
High55 °F (Apr 21, 12:20 pm)100% (Apr 25, 10:30 am)30.63 "Hg (Apr 25, 10:30 am)
Low25 °F (Apr 19, 5:20 am)39% (Apr 19, 2:20 pm)29.56 "Hg (Apr 25, 6:20 am)
Average42 °F75%30.03 "Hg
* Reported Apr 15 2:20 am — Apr 30 2:20 am, Kiel, Weather by CustomWeather, © 2017

Note: Actual official high and low records may vary slightly from our data, if they occured in-between our weather recording intervals... More about our weather records

Advertising

Kiel Weather History for the Previous 24 Hours

Scroll right to see more
 ConditionsComfort  
Time TempWeatherWind HumidityBarometerVisibility
2:20 am
Sun, Apr 30
34 °FChilly.5 mph93%30.12 "HgN/A
1:20 am36 °FChilly.3 mph93%30.12 "HgN/A
12:20 am36 °FChilly.3 mph93%30.12 "HgN/A
11:20 pm
Sat, Apr 29
36 °FChilly.5 mph93%30.12 "HgN/A
10:20 pm37 °FChilly.3 mph87%30.09 "HgN/A
9:20 pm39 °FPassing clouds.5 mph81%30.09 "HgN/A
8:20 pm45 °FPassing clouds.9 mph61%30.09 "HgN/A
7:20 pm48 °FPassing clouds.10 mph62%30.07 "HgN/A
6:20 pm46 °FPassing clouds.8 mph62%30.07 "HgN/A
5:20 pm50 °FPassing clouds.9 mph50%30.07 "HgN/A
4:20 pm48 °FPassing clouds.10 mph54%30.04 "HgN/A
3:20 pm48 °FPassing clouds.13 mph58%30.04 "HgN/A
2:20 pm48 °FPassing clouds.10 mph54%30.01 "HgN/A
1:20 pm48 °FPassing clouds.8 mph62%30.01 "HgN/A
12:20 pm45 °FScattered clouds.6 mph81%30.01 "HgN/A
11:20 am45 °FSprinkles. Broken clouds.9 mph81%29.98 "HgN/A
10:20 am43 °FPartly sunny.12 mph81%29.98 "HgN/A
9:20 am46 °FBroken clouds.13 mph66%29.95 "HgN/A
8:20 am43 °FScattered clouds.6 mph81%29.95 "HgN/A
7:20 am37 °FPartly sunny.5 mph87%29.95 "HgN/A
6:20 am34 °FScattered clouds.3 mph93%29.95 "HgN/A
5:20 am34 °FPassing clouds.5 mph93%29.95 "HgN/A
4:20 am36 °FPassing clouds.5 mph93%29.95 "HgN/A
3:20 am37 °FPartly cloudy.6 mph87%29.95 "HgN/A
Weather by CustomWeather, © 2017

See weather overviewHow to use our weather pages